Union County (MRT)

 

Airport Diagram
No Airport Diagram Available
Current Weather/Forecast (VFR Conditions)
METAR KMRT 071355Z AUTO 33011G16KT 10SM CLR 09/05 A3000 RMK AO2 T00880048
TAF

Airport Information

All Charts
General
Chart Name View
TAKEOFF MINIMUMS
ALTERNATE MINIMUMS

Approaches
Chart Name Download
RNAV (GPS) RWY 09
RNAV (GPS) RWY 27


Airport Statistics
Departures Arrivals Local
All Collected Stats since June 2016: 9 8 0
2021 Stats: 1 1 0
May Stats: 0 0 0

Inbound Traffic (Arrivals) - 0

No inbound traffic.


Outbound Traffic (Departures) - 0

No outbound traffic.


Local Traffic (Pattern) - 0

No local traffic.